Regional Weather Roundup
Issued by NWS

Home | Current Version | Previous Version | Text Only | Print | Product List | Glossary On
Versions: 1 2 3 4 5 6 7 8 9 10 11 12 13 14 15 16 17 18 19 20 21 22 23 24 25 26 27 28 29 30 31 32 33 34 35 36 37 38 39 40 41 42 43 44 45 46 47 48 49 50
000
ASUS43 KBIS 021910
RWRND

NORTH DAKOTA REGIONAL WEATHER ROUNDUP
NATIONAL WEATHER SERVICE BISMARCK ND
200 PM CDT THU JUL 02 2015

NOTE: "FAIR" INDICATES FEW OR NO CLOUDS BELOW 12,000 FEET WITH NO
SIGNIFICANT WEATHER AND/OR OBSTRUCTIONS TO VISIBILITY.


NDZ001>003-009>011-017-022000-
NORTHWEST NORTH DAKOTA

CITY           SKY/WX    TMP DP  RH WIND       PRES   REMARKS
WILLISTON      PTSUNNY   80  58  46 N14       30.03S
MINOT          MOSUNNY   76  62  62 NW10      29.97S HAZE
MINOT AFB      MOSUNNY   79  68  69 N8        29.96S HAZE
$$

NDZ018>021-031>035-040>046-022000-
SOUTHWEST NORTH DAKOTA

CITY           SKY/WX    TMP DP  RH WIND       PRES   REMARKS
BISMARCK       CLOUDY    78  63  59 NW6       29.98S HAZE
DICKINSON      SUNNY     76  57  51 N9G16     30.03F
GARRISON         N/A     76  62  62 VRB7      29.99S
HETTINGER ARPT MOSUNNY   75  59  57 NW15G21   30.06S
$$

NDZ004>008-012>016-024-026-027-054-022000-
NORTHEAST NORTH DAKOTA

CITY           SKY/WX    TMP DP  RH WIND       PRES   REMARKS
GRAND FORKS    MOSUNNY   79  64  60 SW9       29.93S
GRND FRKS AFB  SUNNY     78  65  62 SW9       29.93F
DEVILS LAKE    PTSUNNY   75  61  60 NW8       29.93F
$$

NDZ022-023-025-028>030-036>039-047>053-022000-
SOUTHEAST NORTH DAKOTA

CITY           SKY/WX    TMP DP  RH WIND       PRES   REMARKS
FARGO          SUNNY     76  55  48 S10       29.97S
JAMESTOWN      MOSUNNY   76  65  68 S12       29.95F
$$




USA.gov is the U.S. government's official web portal to all federal, state and local government web resources and services.